Location: N�rnberg
(49.4471°N, 11.0632°E)
Time: 17:32:46
(UTC+01:00)

ARIANE 6 FM1 Upper Stage - Pass Details

Date: 14 February 2026
Orbit: 523 x 607 km, 62.0° (Epoch: 8 March)

Event Time Altitude Azimuth Distance (km) Brightness Sun altitude
Rises 20:15:46 0° 312° (NW) 2,660 7.0 -26.8°
Reaches altitude 10° 20:18:00 10° 307° (NW) 1,768 6.0 -27.2°
Enters shadow 20:20:48 38° 277° (W) 812 3.9 -27.6°
